Regional Weather Roundup
Issued by NWS

Home | Current Version | Previous Version | Graphics & Text | Print | Product List | Glossary Off
Versions: 1 2 3 4 5 6 7 8 9 10 11 12 13 14 15 16 17 18 19 20 21 22 23 24 25 26 27 28 29 30 31 32 33 34 35 36 37 38 39 40 41 42 43 44 45 46 47 48 49 50

000
ASUS43 KMKX 012100
RWRWI

WISCONSIN REGIONAL WEATHER ROUNDUP
NATIONAL WEATHER SERVICE MILWAUKEE/SULLIVAN WI
400 PM CDT TUE SEP 01 2015

NOTE: "FAIR" INDICATES FEW OR NO CLOUDS BELOW 12,000 FEET WITH NO
SIGNIFICANT WEATHER AND/OR OBSTRUCTIONS TO VISIBILITY.

WIZ001-002-006>008-014>016-023>028-012200-
NORTHWEST WISCONSIN

CITY           SKY/WX    TMP DP  RH WIND       PRES   REMARKS
SUPERIOR ARPT  MOSUNNY   83  70  66 W6        29.88S HX  87
ASHLAND        PTSUNNY   84  74  71 SW8       29.89S HX  91
HAYWARD        PTSUNNY   83  70  64 S10       29.92S HX  87
SIREN          PTSUNNY   85  69  59 SW8       29.91R HX  89
CUMBERLAND     PTSUNNY   81  70  69 S7        29.93S HX  84
RICE LAKE      PTSUNNY   83  71  66 S5        29.93F HX  87
CHETEK         PTSUNNY  N/A N/A N/A S6        29.92F
LADYSMITH      CLOUDY    83  70  64 S7        29.95S HX  87
EAU CLAIRE     NOT AVBL
MENOMONIE      PTSUNNY   85  71  63 S6        29.91S HX  91
NEW RICHMOND   CLOUDY    82  70  65 S7        29.91F HX  86
OSCEOLA        CLOUDY    83  70  63 S5        29.92F HX  87
$$

WIZ003>005-009-010-017-018-012200-
NORTH CENTRAL WISCONSIN

CITY           SKY/WX    TMP DP  RH WIND       PRES   REMARKS
MANITOWISH WTR CLOUDY    78  69  74 SW8       29.95F HX  80
ARBOR VITAE    PTSUNNY   80  68  66 W5        29.96S HX  83
WOODRUFF       PTSUNNY   80  68  66 W5        29.96S HX  83
RHINELANDER    PTSUNNY   82  66  58 SW8       29.97F HX  84
EAGLE RIVER    PTSUNNY   80  64  58 W9        29.96S HX  81
LAND O LAKES   PTSUNNY   80  66  62 W6        29.97S HX  82
PHILLIPS       PTSUNNY   80  70  70 SW6       29.95S HX  83
TOMAHAWK       PTSUNNY   82  67  61 W6        29.97S HX  84
MEDFORD        CLOUDY    82  71  70 SW6       29.96S HX  86
MERRILL        CLOUDY    83  71  65 SW9       29.96S HX  88
$$

WIZ029-030-035-036-043>047-012200-
CENTRAL WISCONSIN

CITY           SKY/WX    TMP DP  RH WIND       PRES   REMARKS
WAUSAU         CLOUDY    84  68  58 SW9       29.93F HX  87
MOSINEE        NOT AVBL
MARSHFIELD     MOSUNNY   87  68  52 SW8       29.94F HX  90
STEVENS POINT  PTSUNNY   84  67  54 SW8       29.95F HX  87
WAUPACA        MOSUNNY   89  68  48 S12       29.94F HX  93
WAUTOMA        NOT AVBL
WISC RAPIDS    MOSUNNY   87  69  54 SW10      29.95F HX  91
CAMP DOUGLAS   NOT AVBL
$$

WIZ011>013-019>022-031-037>040-048>050-012200-
NORTHEAST WISCONSIN

CITY           SKY/WX    TMP DP  RH WIND       PRES   REMARKS
ANTIGO         PTSUNNY   84  68  57 W13       29.97S HX  87
SHAWANO        MOSUNNY   89  67  48 SW8       29.93F HX  92
OCONTO         PTSUNNY   88  70  55 SW10      29.92S HX  92
STURGEON BAY   MOSUNNY   81  72  74 S12       29.96F HX  84
GREEN BAY      MOSUNNY   88  72  58 SW10      29.93F HX  94
MANITOWOC      NOT AVBL
APPLETON       PTSUNNY   86  64  48 SW12      29.94S HX  87
CLINTONVILLE   MOSUNNY   88  66  48 SW10G16   29.93F HX  90
OSHKOSH        MOSUNNY   86  69  56 SW12      29.94F HX  90
$$

WIZ032>034-041-042-053>061-012200-
SOUTHWEST WISCONSIN

CITY           SKY/WX    TMP DP  RH WIND       PRES   REMARKS
LA CROSSE      MOSUNNY   90  73  57 S12       29.90F HX  98
SPARTA         SUNNY     89  67  48 S7        29.94S HX  92
VIROQUA          N/A     86  71  60 S9        29.96F HX  91
BOSCOBEL       SUNNY     91  71  51 S9        29.93F HX  97
PRAIRIE DU CHI SUNNY     88  70  55 S5        29.92F HX  92
PLATTEVILLE    SUNNY     86  74  68 S10       29.98S HX  93
$$

WIZ056-057-062-063-064-067-068-012200-
SOUTH CENTRAL WISCONSIN

CITY           SKY/WX    TMP DP  RH WIND       PRES   REMARKS
REEDSBURG      MOSUNNY   88  73  61 SW12      29.95S HX  95
BARABOO/DELLS  MOSUNNY   88  67  48 SW10      29.96S HX  91
LONE ROCK      NOT AVBL
MINERAL POINT  SUNNY     88  72  58 S14       29.98F HX  94
MADISON        PTSUNNY   87  70  56 S10       29.96S HX  92
MIDDLETON      MOSUNNY   89  69  50 SW14      29.97F HX  93
WATERTOWN      SUNNY     87  69  54 SW14      29.97S HX  91
MONROE         MOSUNNY   86  72  62 S15       29.98F HX  92
JANESVILLE     MOSUNNY   90  70  51 SW10      29.97F HX  95
$$

WIZ051-052-058>065-066-070>072-012200-
SOUTHEAST WISCONSIN

CITY           SKY/WX    TMP DP  RH WIND       PRES   REMARKS
MILWAUKEE      MOSUNNY   89  68  49 SW8       29.97S HX  93
WAUKESHA       MOSUNNY   86  68  54 SW7       29.99F HX  89
MILWAUKEE/TIMM MOSUNNY   88  64  45 SW10      29.98F HX  89
RACINE         MOSUNNY   84  70  62 SE9       29.99F HX  88
BURLINGTON     SUNNY     86  68  54 SW9       29.99S HX  89
KENOSHA        MOSUNNY   89  70  53 SW10      29.99S HX  94
FOND DU LAC    MOSUNNY   87  70  56 S10       29.95F HX  92
SHEBOYGAN      MOSUNNY   88  68  51 SW14      29.96S HX  91
WEST BEND      MOSUNNY   88  64  45 SW10      29.97F HX  89
JUNEAU         MOSUNNY   85  70  60 SW14      29.98S HX  90
$$

LSZ147-162-012200-
LAKE SUPERIOR

STATION/POSITION TIME  TEMP    WIND        PRES    WAVE
                       AIR SEA DIR/SP/G            HT/PER
                 (UTC) (F)     (DEG/KT/KT) (MB)    (FT/S)
W MID LAKE BUOY  1950   62 55  210/  8/  8 1011.8F   0
DEVILS ISLAND    2000   72     240/  6/  9 1011.8F
PORT WING        2040   74     300/  3/  4 1012.2F
SAXON HARBOR     2000   74      60/  4/  4 1011.9F
$$

LMZ867-665-643>646-012200-
LAKE MICHIGAN

STATION/POSITION TIME  TEMP    WIND        PRES    WAVE
                       AIR SEA DIR/SP/G            HT/PER
                 (UTC) (F)     (DEG/KT/KT) (MB)    (FT/S)
CHAMBERS ISLAND  2000   81     160/  5/ 10 1013.5F
S GREEN BAY BUOY 2000   76 67  220/  8/  8 1015.0
N MID LAKE BUOY  1950   67 65  200/ 12/ 14 1014.1S   2/ 4
NORTHPORT PIER   2000   72     150/  7/ 13 1013.9F
SISTER BAY       2019   83     170/ 13/ 15   N/A
ALGOMA LAKESHORE 1944          200/  8/  9   N/A
KEWAUNEE LAKESHO 2000   54     170/ 12/ 13 1013.4F
SHEBOYGAN LAKESH 2000   71     180/ 21/ 22 1014.5F
PORT WASHINGTON  2000   68     180/  5/ 10 1015.6
ATWATER BUOY     2000   64 49  170/ 12/ 14 1016.3F
MILWAUKEE LAKESH 1910   67     150/ 14/ 15   N/A
S MID LAKE BUOY  1950   73 70  170/ 12/ 14 1015.5F   1/ 3
KENOSHA   LAKESH 2000   71     180/  8/ 11 1014.9F
$$

TC  - TEMPERATURE IN CELSIUS
VSB - VISIBILITY IN STATUTE MILES
WCI - WIND CHILL INDEX
HX  - HEAT INDEX



USA.gov is the U.S. government's official web portal to all federal, state and local government web resources and services.